Llanelli Half Marathon
Skip Navigation Links
12 March 2017
HyperLink
Click on your name for more detailed race data
Pos
Bib No
Fav
Share
Photo
Print
Name
Gun Time
Chip Time
Category
Cat Pos
Gender
Gen Pos
Club
Pace
13Josh GRIFFITHS1:05:17.41:05:17.3SenM1Male1SWANSEA HARRIERS12.0 m/hr
24Matthew REES1:11:45.01:11:44.8SenM2Male2SWANSEA HARRIERS11.0 m/hr
35Ian HARRIS1:11:55.21:11:54.7SenM3Male3SWANSEA HARRIERS10.9 m/hr
460Gary Wyn DAVIES1:14:22.31:14:21.2SenM4Male4ABERYSTWYTH AC10.6 m/hr
51107Tom MARSHALLSAY1:15:55.71:15:54.1SenM5Male5UKNETRUNNER.CO.UK10.4 m/hr
6227Michael BRYANT1:17:18.71:17:17.2SenM6Male6SWANSEA HARRIERS10.2 m/hr
7351Emyr MORGAN1:19:06.61:19:05.9MV401Male7LES CROUPIERS 9.9 m/hr
81063Geraint LEWIS1:19:35.71:19:33.8MV402Male8PORTHCAWL RUNNERS 9.9 m/hr
91098Stephen BARTLETT1:19:37.81:19:35.6MV403Male9PONTYPRIDD ROADENTS AC 9.9 m/hr
101180Dan WHAITES1:19:41.61:19:40.8SenM7Male10  9.9 m/hr
11836Rhys HARRIES1:19:47.61:19:46.4SenM8Male11  9.9 m/hr
121356Alex SCOTT1:20:01.41:19:59.3SenM9Male12SWANSEA HARRIERS 9.8 m/hr
131121Andrew HOW1:20:58.51:20:57.9SenM10Male13HEADER LAKE RUNNING CLUB 9.7 m/hr
146Carys HUGHES1:21:21.81:21:21.6SenF1Female1CARDIFF AAC 9.7 m/hr
15466Martin FLEAR1:21:30.01:21:28.3SenM11Male14LLANELLI AC 9.6 m/hr
16496Nicholas SHEEHAN1:21:41.81:21:40.5SenM12Male15  9.6 m/hr
17529Jason PRICE1:21:53.21:21:51.4MV404Male16LLANELLI AC 9.6 m/hr
18269Stephen EVANS1:22:07.11:22:05.5SenM13Male17  9.6 m/hr
19448Charles Thomas WALSH1:22:25.21:22:21.1MV405Male18SWANSEA HARRIERS 9.5 m/hr
201373Samuel WEBSTER1:22:54.91:22:53.2MV406Male19CARDIFF TRIATHLETES 9.5 m/hr
21784Carwyn DAVIES1:23:01.11:23:00.0SenM14Male20SARN HELEN 9.5 m/hr
221064Terry JONES1:23:02.41:22:53.8MV407Male21RUN4ALL NEATH 9.5 m/hr
23589David ASTINS1:23:05.31:23:03.1MV408Male22  9.5 m/hr
24948Alun BONELLO1:23:12.31:23:08.0SenM15Male23  9.4 m/hr
25150James OCALLAGHAN1:23:53.91:23:49.8MV409Male24SWANSEA HARRIERS 9.4 m/hr
26299Chris FRANCIS1:24:01.41:23:58.4SenM16Male253M GORSEINON ROAD RUNNERS 9.4 m/hr
271503Mike EVANS1:24:04.61:24:02.6MV4010Male26  9.3 m/hr
28940Aaron JONES1:24:23.61:24:15.5MV4011Male27  9.3 m/hr
291308Barney GOODRICH1:24:28.71:24:22.9MV4012Male28BRECON AC 9.3 m/hr
301496Simon DAVIES1:24:37.51:24:32.7SenM17Male29  9.3 m/hr
31936Paul O'CALLAGHAN1:24:40.91:24:39.5SenM18Male30  9.3 m/hr
32757Hugh JANNEY1:24:42.71:24:38.1MV4013Male31AMMAN VALLEY HARRIERS 9.3 m/hr
33349Ian EVANS1:24:50.21:24:40.1SenM19Male32  9.3 m/hr
34763Paul CLARKE1:24:59.61:24:57.3SenM20Male33CARMARTHEN HARRIERS 9.2 m/hr
351313Roscoe HOWELL1:25:04.21:24:32.7SenM21Male34PEMBROKESHIRE HARRIERS 9.2 m/hr
361013Gethin POWELL1:26:40.51:26:39.4SenM22Male35WHITE ROCK RUNNERS 9.1 m/hr
37458John MORAN1:26:44.51:26:39.3SenM23Male36SWANSEA HARRIERS 9.1 m/hr
381195Mark BEVERIDGE1:26:44.51:26:41.9MV4014Male37  9.1 m/hr
391319Aled JONES-DAVIES1:27:07.11:27:03.0SenM24Male38TROTS 9.0 m/hr
40635Martin COLE1:27:16.21:27:08.0MV501Male39RUN4ALL NEATH 9.0 m/hr
41588Ellie ASTINS1:27:21.11:27:16.3FV351Female2  9.0 m/hr
42707Simon REES1:27:21.61:27:14.1SenM25Male40LLANELLI AC 9.0 m/hr
43688Luticia THOMAS1:27:43.01:27:42.6SenF2Female3AMMAN VALLEY HARRIERS 9.0 m/hr
441268Gareth AHEARNE1:27:57.21:27:32.4SenM26Male41  8.9 m/hr
451327Daniel LUFFMAN1:27:58.01:27:57.5MV4015Male42LES CROUPIERS 8.9 m/hr
46746Rachel DAVIES1:27:58.71:27:57.7SenF3Female4AMMAN VALLEY HARRIERS 8.9 m/hr
47558Llinos JONES1:28:01.51:28:00.8FV352Female5AMMAN VALLEY HARRIERS 8.9 m/hr
481291Alex CORNETT1:28:17.41:28:08.9SenM27Male43  8.9 m/hr
491526Daniel O'KEEFE1:28:18.01:27:56.8SenM28Male44  8.9 m/hr
50543Gareth LEE1:28:18.81:28:12.0SenM29Male45  8.9 m/hr
51806Glyn JONES1:28:20.61:28:14.3MV502Male46  8.9 m/hr
52801Sarah WORLEY1:28:22.61:28:18.0SenF4Female6SWANSEA HARRIERS 8.9 m/hr
53483Jamie STEDMAN1:28:24.31:28:20.2SenM30Male47LLANELLI AC 8.9 m/hr
541549Dameon WINDSOR1:28:26.61:28:23.0SenM31Male48  8.9 m/hr
55325Daniel MATHIAS1:28:30.21:28:25.1SenM32Male49  8.9 m/hr
561281Andrew BOWEN1:28:41.31:28:36.8MV4016Male50  8.9 m/hr
57347Lee MORRIS1:29:01.01:28:54.8SenM33Male513M GORSEINON ROAD RUNNERS 8.8 m/hr
581321Max JUDGE1:29:08.21:28:46.1SenM34Male52  8.8 m/hr
59706Huw TILLMAN1:29:14.71:29:07.9SenM35Male53  8.8 m/hr
60213Daniel TOTTERDALE1:29:16.91:29:11.6SenM36Male54LLANELLI TRI CLUB 8.8 m/hr
61747Pari THOMAS1:29:23.61:28:42.5SenM37Male55  8.8 m/hr
621200Jennifer MCNAMARA1:29:24.61:29:21.1FV353Female7CHEDDAR RUNNING CLUB 8.8 m/hr
63273Geraint WILLIAMS1:29:25.61:29:15.9SenM38Male56SWANSEA HARRIERS 8.8 m/hr
64285Simon JONES1:29:25.81:29:11.3SenM39Male57  8.8 m/hr
651073Liam OSBORNE1:29:31.51:29:29.1SenM40Male58  8.8 m/hr
66145Cayo ARRAN1:29:33.01:29:29.5SenM41Male593M GORSEINON ROAD RUNNERS 8.8 m/hr
67625Samuel CHALMERS1:29:34.11:29:27.1SenM42Male60  8.8 m/hr
681258Steven WILLIAMS1:29:34.11:29:32.6PACER1Male61  8.8 m/hr
6984Michael RODERICK1:29:43.41:29:29.4SenM43Male62SWANSEA HARRIERS 8.8 m/hr
701260Phillip TURNER1:29:45.21:29:41.7PACER2Male63  8.8 m/hr
711315Alex JOHN1:29:50.91:29:48.2SenM44Male64  8.7 m/hr
72169David MCCUTCHEON1:29:52.91:29:29.8SenM45Male65  8.7 m/hr
731513Robert HUISH1:29:54.31:29:37.7SenM46Male66  8.7 m/hr
741048Luke BARHAM1:29:56.61:29:51.4SenM47Male67  8.7 m/hr
751294Daryn DAVID1:29:58.01:29:44.3SenM48Male68  8.7 m/hr
761504Leigh FENNELL1:30:01.21:29:51.5MV4017Male69  8.7 m/hr
771201Tom WEEKS1:30:06.31:29:47.1SenM49Male70  8.7 m/hr
78969Robert AHEARNE1:30:15.71:30:12.8SenM50Male71  8.7 m/hr
791282Simon BOWEN1:30:20.21:30:15.9SenM51Male72OGMORE COURT AC 8.7 m/hr
801329Mark MCCORMACK1:30:21.41:29:50.4MV4018Male73  8.7 m/hr
81919Shaun DONOHOE1:30:22.81:30:08.9SenM52Male74  8.7 m/hr
82318Dean WEBSTER1:30:29.21:30:26.0SenM53Male75  8.7 m/hr
83814Elgan VITTLE1:30:30.01:30:20.8SenM54Male76  8.7 m/hr
84323Ross QUICK1:30:33.51:30:19.6SenM55Male77  8.7 m/hr
851277Michael BOHAN1:30:38.81:30:34.2SenM56Male78  8.7 m/hr
86790Wendy PRICE1:30:44.61:30:43.6FV354Female8  8.7 m/hr
871102Edward MORGAN1:30:47.71:30:32.7MV503Male79  8.7 m/hr
881521Julian MAINE1:30:51.61:30:43.2MV504Male80  8.7 m/hr
891193Laurie CARTER1:30:54.51:30:41.7MV60+1Male81CHEPSTOW HARRIERS 8.6 m/hr
90581Llyr ROBERTS1:30:56.91:30:45.1SenM57Male82  8.6 m/hr
911188Matthew CHARD1:31:11.31:30:59.7SenM58Male83EBBW VALE 8.6 m/hr
92544Owen LOCK1:31:17.21:30:31.6SenM59Male84  8.6 m/hr
931082Gethin EDWARDS1:31:23.41:31:13.4SenM60Male85  8.6 m/hr
94160Lloyd DAVIES1:31:29.11:31:20.4SenM61Male86  8.6 m/hr
95547Wayne LEWIS1:31:31.01:31:28.8MV4019Male87AMMAN VALLEY HARRIERS 8.6 m/hr
96480Paul GUEST1:31:35.01:31:24.7MV4020Male88  8.6 m/hr
97812Philip PEARCE1:31:42.31:31:21.5SenM62Male89  8.6 m/hr
981353Jon ROBERTS1:31:47.91:31:42.7SenM63Male90  8.6 m/hr
99170Jamie LEWIS1:32:04.71:31:58.7SenM64Male91PORT TALBOT HARRIERS 8.5 m/hr
100527Ben HUBBARD1:32:16.51:31:39.0SenM65Male92  8.5 m/hr
fb

HyperLink Copyright (c) G Vincent, 2016